Miscellaneous Local Product
Issued by NWS North Platte, NE

Home | Current Version | Previous Version | Text Only | Print | Product List | Glossary On
Versions: 1 2 3 4 5 6 7 8 9 10 11 12 13 14 15 16 17 18 19 20 21 22 23 24 25 26 27 28 29 30 31 32 33 34 35 36 37 38 39 40 41 42 43 44 45 46 47 48 49 50
000
AXUS43 KLBF 222310
MISLBF


WESTERN AND NORTH CENTRAL NEBRASKA HOURLY WEATHER ROUNDUP
NATIONAL WEATHER SERVICE NORTH PLATTE NE
600 PM CDT FRI AUG 22 2014

***STATIONS NOT REPORTING VARIABLES SUCH AS SKY/WEATHER OR
PRESSURE ARE PROVIDED BY THE NEBRASKA DEPARTMENT OF
ROADS...RAWS...AND APRS NETWORKS...AND ARE NOT UNDER
NATIONAL WEATHER SERVICE QUALITY CONTROL***

...OBSERVATIONS IN AND NEAR THE EASTERN PANHANDLE OF NEBRASKA...

CITY           SKY/WX    TMP DP  RH WIND       PRES   REMARKS
PINE RIDGE     CLOUDY    76  62  62 E9        30.02F
CHADRON        PTSUNNY   78  59  51 E8        30.00F
ALLIANCE       CLOUDY    71  56  58 S16       30.06S
SIDNEY         CLOUDY    67  61  81 CALM      30.08F
WHITECLAY        N/A     80  57  45 E6          N/A
RUSHVILLE        N/A     81  58  45 E14         N/A
GORDON           N/A     82  59  46 SE13        N/A
CRESCENT LAKE    N/A     62  58  87 W5G15       N/A
LISCO            N/A     68  63  85 N7          N/A
BIG SPRINGS      N/A     74  64  71 N3          N/A
$$

...OBSERVATIONS IN NORTH CENTRAL NEBRASKA...

CITY           SKY/WX    TMP DP  RH WIND       PRES   REMARKS
VALENTINE      CLOUDY    81  58  45 S10       30.02S
THEDFORD       CLOUDY    76  62  60 NW7       30.04S
AINSWORTH      CLOUDY    75  66  71 W5        30.02S
O`NEILL        CLOUDY    82  70  67 NE6       29.98R
ORD            MOSUNNY   86  70  58 NE10      29.94S HX  90
BROKEN BOW     LGT RAIN  83  71  67 NE8       29.98R
BROWNLEE         N/A     75  64  66 W3          N/A
SPRINGVIEW       N/A     80  71  73 CALM        N/A
ROSE             N/A     83  75  75 NE6         N/A  HX  91
NEWPORT          N/A     80  71  74 E3          N/A
SARGENT          N/A     83  68  60 MISG        N/A
COMSTOCK         N/A     91  75  59 E9          N/A  HX 102
CHAMBERS         N/A     84  67  57 NE6         N/A
EWING            N/A     80  73  79 CALM        N/A
$$

...OBSERVATIONS IN SOUTHWEST NEBRASKA AND FAR NORTHEAST COLORADO...

CITY           SKY/WX    TMP DP  RH WIND       PRES   REMARKS
WRAY           LGT RAIN  75  60  60 N14       29.99F
IMPERIAL       CLOUDY    78  57  48 N9        29.98F
OGALLALA       PTSUNNY   75  58  54 N9        30.01F
NORTH PLATTE   MOSUNNY   83  63  50 E10       29.97F
MCCOOK         PTSUNNY   88  63  43 E20       29.91F
LEXINGTON      MOSUNNY   85  72  66 E7        29.96S HX  90
PAXTON           N/A     82  64  53 NW5         N/A
SUTHERLAND       N/A     86  62  44 E6          N/A
BRADY            N/A     83  68  59 CALM        N/A
GOTHENBURG       N/A     85  63  47 E7          N/A
CALLAWAY         N/A     84  73  69 NE8         N/A  HX  90
$$

...SOME WEATHER OBSERVATIONS FROM AROUND THE REGION...

CITY           SKY/WX    TMP DP  RH WIND       PRES   REMARKS
DENVER         CLOUDY    65  60  84 SE14      30.08F
LARAMIE        CLOUDY    65  49  56 SE24G33   30.14F
CHEYENNE       CLOUDY    68  54  60 S15G25    30.11F
SCOTTSBLUFF    LGT RAIN  71  60  68 E13       30.03S
RAPID CITY     PTSUNNY   75  61  61 E9        30.02F
PIERRE         PTSUNNY   79  65  62 E15       29.97S
WINNER         CLOUDY    82  68  62 SE12      29.98S
SIOUX FALLS    PTSUNNY   84  68  58 E7        29.97F
OMAHA          TSTM      77  73  87 SW6       29.89F
GRAND ISLAND   MOSUNNY   87  73  62 E9        29.91F HX  94
KANSAS CITY    CLOUDY    92  74  55 CALM      29.92R HX 101
WICHITA        MOSUNNY   99  64  31 S17       29.85S HX 101
HAYS           MOSUNNY   99  64  32 S13       29.84R HX 101
LIBERAL        MOSUNNY   97  55  24 S20G30    29.86F HX  95
GOODLAND       PTSUNNY   83  63  50 E16       29.97R
$$



USA.gov is the U.S. government's official web portal to all federal, state and local government web resources and services.